ワイズ彗星

356P/WISE (2026)

English version
Home page
Updated on November 30, 2024

---------------------------------------------------------------------

・ プロフィール

・ 軌道要素

Epoch 2026 June 9.0 TT = JDT 2461200.5
T 2026 June 12.48271 TT                                 MPCW
q   2.6744661            (2000.0)            P               Q
n   0.11659510     Peri.  226.29908     +0.88728234     -0.45790879
a   4.1496919      Node   160.74600     +0.45648706     +0.85472682
e   0.3555025      Incl.    9.64053     +0.06595160     +0.24446187
P   8.45
From 162 observations 2009 Nov. 9-2018 Feb. 9, mean residual 0".7.

・ 光度変化

        m1 = 12.5 + 5 logΔ + 10.0 log r

---------------------------------------------------------------------

軌道要素はM.P.E.C. 2018-D91に掲載されたものです。
光度グラフはComet for Windowsで作成したものです。

---------------------------------------------------------------------

Copyright(C) Seiichi Yoshida (comet@aerith.net). All rights reserved.